Wind_Speed
17 16 16 16 15 14 14 14 13 13 12 12 11 11 11 10 11 11 11 10 10 9 9 9 9 9 9 8 8 8 8 8 8 8 8 8 8 8 8 8 8 8 8
18 18 17 17 17 16 15 15 15 14 13 13 13 12 12 12 11 11 11 11 11 10 10 10 9 9 8 8 8 7 8 8 8 8 8 8 8 8 8 8 8 8 8
18 18 18 18 18 18 17 17 17 16 15 15 14 14 13 13 12 12 12 12 11 11 11 11 11 10 9 9 8 8 8 8 8 8 9 9 9 9 9 9 9 9 9
18 18 18 18 18 19 18 18 18 18 17 16 15 15 15 14 14 14 13 13 12 12 12 11 11 11 10 10 9 8 8 9 9 9 9 10 10 10 10 10 9 9 9
19 19 19 19 19 19 19 19 19 19 19 18 17 16 16 16 16 15 15 15 14 13 13 13 12 12 12 12 10 10 10 10 10 10 11 11 11 11 10 10 10 10 10
20 20 20 20 20 19 20 20 20 20 20 19 19 18 17 17 17 16 16 16 14 14 14 13 13 13 13 12 12 11 11 12 12 12 11 11 11 11 11 11 11 11 11
22 22 22 22 22 22 22 22 22 22 22 21 21 20 19 18 18 18 18 17 16 15 15 15 15 14 14 14 14 13 13 13 13 13 13 12 12 13 13 13 13 13 13
23 23 22 23 23 22 22 22 23 23 23 22 22 21 21 20 20 19 19 18 18 18 17 16 16 16 16 15 15 14 14 14 14 14 14 14 14 14 14 15 15 15 15
23 23 22 23 23 23 23 22 23 24 24 23 24 23 22 21 21 21 20 20 19 19 20 19 18 17 17 16 16 16 15 15 15 15 16 16 16 16 16 16 16 16 16
23 23 23 23 23 23 23 23 23 23 24 25 25 24 24 23 22 22 22 22 21 21 21 20 20 20 19 18 18 18 17 16 17 17 17 17 18 18 18 18 17 17 17
25 25 24 24 25 25 25 25 24 24 24 26 26 26 25 25 25 24 24 23 23 23 22 21 21 21 21 20 20 20 19 19 19 19 19 19 18 19 19 19 19 18 19
27 26 26 26 26 26 26 26 26 26 26 26 27 27 26 27 27 26 26 25 24 24 23 22 22 22 22 22 22 22 21 20 20 20 20 20 19 20 20 20 20 20 20
28 27 27 26 26 26 26 27 27 27 27 27 27 27 28 28 28 28 28 27 26 25 25 24 23 23 24 24 23 23 22 22 21 21 21 21 21 21 21 21 20 20 20
29 28 28 28 27 28 28 28 28 28 28 28 28 28 28 29 30 29 28 28 27 27 26 25 25 25 25 25 25 24 24 23 23 23 22 23 23 23 22 22 22 22 22
29 29 29 29 28 29 29 29 29 30 30 29 29 29 28 29 30 30 30 29 29 28 28 27 26 26 26 26 26 26 25 25 24 24 23 23 24 24 24 24 24 23 23
28 28 29 29 30 30 31 31 31 30 30 30 29 29 28 28 29 31 31 30 30 30 29 28 28 27 27 27 27 26 26 26 26 25 24 24 25 25 25 24 25 24 24
28 28 29 29 30 31 32 31 30 30 30 30 29 29 28 29 29 29 30 31 30 31 30 29 29 28 28 28 28 28 27 27 27 26 26 26 26 26 26 26 26 26 26
30 29 30 30 30 31 32 31 31 31 31 30 31 30 30 30 30 30 29 30 31 31 31 31 30 30 29 29 29 29 29 28 28 27 27 27 27 27 27 27 27 27 27
30 30 30 30 30 32 32 32 32 32 32 32 31 32 33 32 31 32 31 31 31 31 31 32 32 31 31 31 31 31 30 29 29 29 28 28 28 28 28 28 28 28 28
30 30 30 30 30 31 31 32 32 33 32 32 32 33 33 32 32 31 31 31 32 31 31 31 32 31 32 32 32 32 32 31 30 30 30 29 29 29 29 29 29 29 29
29 29 30 30 30 30 31 31 32 32 32 32 32 33 33 33 33 32 32 32 32 32 31 31 31 32 32 33 33 33 32 32 31 31 31 30 30 30 30 30 30 30 31
29 29 29 29 29 30 30 30 30 30 31 31 32 33 33 33 33 33 33 33 32 33 33 32 31 31 32 33 34 34 34 33 33 32 32 31 31 31 31 31 32 32 32
29 29 29 29 29 29 29 29 29 29 30 31 31 32 32 33 33 34 33 33 32 32 33 33 32 33 33 33 34 34 34 34 34 34 34 33 33 33 33 33 33 33 34
27 26 27 28 28 29 29 29 28 28 29 30 31 31 31 32 32 33 34 33 33 33 33 33 33 33 34 35 35 34 35 35 35 35 36 36 35 35 35 35 35 35 36
25 23 24 25 26 26 26 27 27 27 28 28 29 30 31 31 31 32 33 33 34 34 34 34 34 34 34 35 35 35 35 35 35 35 36 36 36 36 36 36 36 36 37
22 21 21 22 22 23 24 25 25 26 26 27 27 28 29 29 31 31 33 34 34 35 35 35 35 35 35 34 35 36 36 35 35 36 36 37 37 37 37 37 37 38 38
Wind_Direction
279 275 271 269 266 266 267 268 264 262 261 258 254 250 250 252 252 253 252 252 254 255 254 254 256 258 260 262 263 261 260 258 259 258 261 266 274 280 284 287 291 295 295
276 272 268 265 263 262 262 262 261 261 258 256 253 248 248 248 247 249 251 253 254 256 254 251 250 250 257 259 261 263 262 259 257 259 263 268 275 278 282 288 293 296 296
275 273 269 264 262 260 259 258 257 258 256 254 251 249 248 247 249 249 251 253 253 254 253 250 249 248 252 254 256 258 258 257 258 262 264 269 273 276 280 284 290 295 297
274 273 270 266 263 261 258 255 254 254 253 251 252 250 247 247 249 251 253 252 251 252 252 249 249 247 250 250 256 259 257 256 258 262 266 272 275 276 279 284 288 291 296
275 272 270 268 264 262 259 256 253 251 250 249 248 248 247 247 248 250 252 250 248 249 251 249 250 249 250 252 256 257 255 256 260 263 265 270 273 274 276 280 284 290 294
274 272 270 267 265 263 260 257 253 251 250 247 246 247 247 247 247 249 250 249 248 249 252 252 252 252 251 249 251 257 258 260 262 263 263 267 270 273 273 274 280 285 290
274 271 269 267 265 262 260 258 254 251 250 247 245 245 247 246 247 248 248 248 248 250 252 252 252 253 251 248 252 257 259 259 262 264 263 265 269 272 272 275 278 282 286
274 271 268 267 265 263 260 257 254 251 249 247 245 246 247 246 246 247 249 249 249 250 250 248 249 252 253 250 253 257 258 257 261 262 262 263 267 270 272 274 276 279 284
274 271 269 266 263 261 259 257 254 250 246 245 245 246 247 247 246 246 247 248 249 252 251 249 249 250 252 251 253 256 257 257 259 261 261 262 264 267 270 274 277 280 284
271 270 268 266 263 259 258 257 255 252 247 244 243 245 247 246 245 246 248 249 251 252 253 251 249 248 250 251 253 255 256 257 259 261 262 264 265 267 269 272 275 279 283
270 269 267 266 262 258 257 256 255 252 250 246 245 245 246 247 246 247 249 249 251 252 252 252 250 249 250 253 253 254 255 256 259 260 262 264 265 266 268 270 274 278 282
270 269 268 266 262 258 255 255 254 253 251 249 247 247 247 247 248 248 248 249 250 250 251 251 249 249 250 252 254 255 255 257 259 260 262 263 265 266 268 270 274 277 280
269 268 266 264 261 258 255 255 254 252 252 251 250 250 248 247 247 248 247 247 248 249 250 250 250 249 250 251 254 254 254 256 258 260 261 262 264 267 268 270 274 278 280
268 266 264 263 260 257 256 255 254 253 253 252 251 252 251 248 247 247 247 247 247 249 249 250 251 251 251 252 252 252 252 255 258 259 261 262 264 266 268 270 273 277 279
268 267 264 261 259 256 255 255 255 254 254 252 250 251 252 251 247 246 245 245 245 247 248 249 252 253 253 252 251 252 253 255 257 259 261 263 263 264 267 270 272 275 278
270 268 266 262 259 256 255 255 255 253 252 251 250 250 249 249 247 245 244 245 245 247 249 249 251 252 252 252 252 253 254 255 257 259 261 262 264 264 266 269 272 274 276
271 268 265 263 260 256 254 254 253 251 251 251 249 249 249 249 248 246 245 245 246 248 249 249 250 252 253 253 252 253 255 256 258 260 262 264 264 264 266 268 272 274 276
271 268 266 263 259 256 254 254 252 251 250 251 248 247 249 250 249 248 248 247 246 247 248 249 250 252 253 252 252 253 255 257 258 260 262 264 266 267 268 269 271 274 276
271 269 267 263 259 257 255 253 252 251 251 250 249 248 248 250 249 248 248 248 247 246 248 250 250 252 253 252 252 253 255 257 258 260 262 264 265 267 268 269 271 272 275
271 269 266 263 260 258 255 253 252 251 252 250 249 248 248 248 248 248 248 248 247 247 247 248 249 251 252 250 250 253 255 257 258 260 261 263 265 267 267 267 270 272 275
271 268 266 264 261 258 257 255 253 252 252 250 251 249 249 249 248 248 249 249 249 249 247 247 248 251 252 251 250 252 255 256 257 258 259 262 265 267 268 269 271 273 275
273 270 266 263 261 258 256 255 254 253 252 251 250 249 249 248 248 249 249 251 251 250 249 249 250 252 252 250 251 252 254 254 256 258 260 261 264 266 268 270 272 273 274
277 273 267 263 260 258 255 255 255 254 253 251 250 249 249 248 249 249 250 251 251 250 250 249 251 252 251 250 251 253 254 256 256 258 259 261 263 266 268 270 272 274 275
277 273 268 264 261 259 256 254 254 253 252 251 250 250 250 249 249 249 249 249 250 251 252 251 252 252 251 250 251 253 255 257 257 258 260 261 264 265 268 270 273 274 275
277 275 269 264 262 260 256 255 255 253 252 252 251 251 250 250 250 249 250 250 251 251 251 252 252 251 251 250 251 253 256 257 258 260 261 263 264 265 267 270 272 274 276
277 275 271 265 261 258 256 256 255 254 252 252 251 252 251 250 249 249 251 251 252 252 251 251 251 251 250 251 253 254 256 257 258 260 262 263 264 265 267 269 271 274 276
Height
5818 5817 5817 5817 5817 5817 5817 5818 5818 5818 5818 5819 5819 5819 5820 5820 5821 5822 5822 5823 5823 5823 5823 5824 5824 5824 5824 5824 5824 5824 5824 5824 5824 5824 5824 5824 5824 5824 5823 5822 5822 5821 5820
5813 5812 5812 5812 5812 5812 5813 5813 5814 5814 5815 5815 5815 5816 5816 5817 5818 5818 5819 5819 5820 5820 5820 5821 5821 5821 5821 5822 5822 5822 5822 5822 5822 5822 5822 5822 5822 5822 5821 5820 5819 5818 5817
5807 5807 5807 5807 5807 5807 5808 5808 5809 5809 5810 5810 5811 5812 5813 5813 5814 5815 5816 5816 5817 5817 5817 5818 5818 5819 5819 5819 5820 5820 5820 5820 5820 5820 5820 5820 5820 5819 5819 5818 5817 5816 5815
5802 5801 5801 5801 5801 5802 5802 5803 5803 5804 5805 5806 5807 5807 5808 5809 5810 5811 5812 5812 5813 5813 5814 5815 5815 5816 5816 5816 5817 5817 5817 5817 5817 5818 5818 5817 5817 5817 5816 5816 5815 5814 5813
5796 5795 5795 5795 5795 5795 5796 5796 5797 5798 5799 5800 5801 5802 5803 5804 5805 5807 5807 5808 5809 5809 5810 5811 5811 5812 5813 5813 5814 5814 5814 5814 5815 5815 5815 5814 5814 5814 5813 5813 5812 5811 5810
5789 5789 5789 5788 5789 5789 5789 5790 5791 5792 5793 5794 5796 5797 5798 5799 5800 5801 5802 5803 5804 5805 5806 5807 5807 5808 5809 5809 5810 5810 5811 5811 5811 5811 5811 5811 5811 5810 5810 5810 5809 5808 5807
5782 5781 5781 5781 5781 5782 5782 5782 5784 5785 5786 5788 5789 5791 5792 5794 5795 5796 5797 5798 5799 5800 5801 5802 5803 5804 5804 5805 5806 5806 5807 5807 5807 5808 5807 5807 5807 5807 5806 5806 5805 5805 5804
5774 5774 5774 5773 5774 5774 5775 5775 5776 5778 5779 5781 5782 5784 5786 5788 5789 5790 5791 5793 5794 5795 5796 5797 5798 5799 5800 5801 5801 5802 5802 5803 5803 5803 5803 5803 5803 5803 5802 5802 5801 5800 5800
5766 5765 5765 5765 5766 5766 5767 5768 5769 5770 5772 5774 5775 5777 5779 5781 5782 5784 5785 5787 5788 5790 5791 5792 5793 5794 5795 5796 5796 5797 5798 5798 5798 5798 5798 5798 5798 5798 5798 5797 5797 5796 5795
5758 5758 5757 5757 5758 5759 5760 5761 5761 5762 5764 5766 5768 5770 5772 5774 5776 5777 5779 5780 5782 5783 5784 5786 5787 5788 5789 5790 5791 5792 5792 5793 5793 5793 5793 5793 5793 5793 5792 5792 5792 5791 5790
5749 5749 5749 5749 5749 5750 5752 5753 5754 5755 5756 5758 5760 5762 5764 5766 5768 5770 5772 5774 5775 5776 5778 5779 5780 5782 5783 5784 5785 5786 5787 5787 5787 5787 5788 5788 5788 5787 5787 5787 5786 5786 5785
5740 5740 5740 5740 5740 5741 5743 5744 5745 5747 5748 5750 5752 5754 5756 5758 5760 5763 5765 5766 5768 5770 5771 5772 5774 5775 5776 5777 5778 5779 5780 5780 5781 5781 5781 5782 5782 5781 5781 5781 5780 5780 5779
5730 5730 5731 5731 5731 5732 5733 5735 5736 5738 5740 5742 5744 5746 5748 5750 5752 5755 5757 5759 5760 5762 5764 5765 5766 5768 5769 5770 5771 5772 5773 5774 5774 5775 5775 5775 5775 5775 5775 5774 5774 5773 5772
5720 5720 5721 5721 5722 5722 5724 5726 5727 5729 5731 5733 5735 5737 5739 5741 5744 5746 5748 5750 5752 5754 5756 5757 5758 5760 5761 5762 5763 5764 5765 5766 5767 5768 5768 5768 5768 5768 5768 5767 5767 5766 5766
5710 5710 5711 5711 5711 5713 5714 5716 5718 5720 5721 5723 5726 5728 5730 5732 5735 5737 5739 5741 5744 5746 5747 5749 5750 5752 5753 5754 5755 5756 5757 5758 5759 5760 5760 5760 5760 5760 5760 5760 5759 5759 5758
5700 5700 5700 5700 5701 5702 5704 5706 5707 5709 5711 5713 5716 5718 5720 5722 5724 5727 5729 5732 5734 5736 5738 5740 5742 5743 5744 5746 5747 5748 5749 5750 5751 5752 5752 5752 5752 5752 5752 5752 5751 5751 5750
5690 5690 5690 5690 5690 5691 5693 5695 5697 5699 5701 5703 5706 5708 5710 5712 5714 5717 5719 5722 5724 5726 5729 5731 5733 5734 5736 5737 5738 5740 5741 5742 5742 5743 5744 5744 5744 5744 5744 5744 5743 5743 5742
5679 5679 5679 5679 5680 5681 5683 5685 5687 5689 5692 5694 5696 5698 5701 5702 5705 5707 5709 5712 5714 5717 5719 5721 5723 5725 5726 5728 5729 5730 5732 5733 5734 5734 5735 5735 5735 5735 5735 5735 5735 5735 5734
5668 5668 5668 5669 5670 5671 5673 5674 5677 5679 5681 5683 5686 5688 5690 5692 5694 5697 5699 5702 5704 5707 5709 5711 5713 5715 5716 5718 5720 5721 5722 5723 5724 5725 5726 5726 5726 5726 5726 5726 5726 5726 5725
5658 5658 5657 5658 5659 5660 5662 5663 5666 5668 5670 5672 5675 5677 5679 5682 5684 5687 5689 5692 5694 5696 5698 5700 5702 5704 5706 5708 5709 5711 5712 5714 5715 5716 5716 5717 5717 5717 5717 5717 5717 5717 5716
5647 5647 5647 5647 5648 5649 5651 5653 5655 5657 5659 5661 5664 5666 5668 5671 5674 5677 5679 5682 5684 5686 5688 5690 5692 5694 5695 5697 5699 5701 5702 5704 5705 5706 5706 5707 5707 5708 5708 5708 5707 5707 5707
5637 5637 5637 5637 5638 5639 5640 5642 5644 5646 5648 5650 5653 5655 5658 5660 5663 5666 5669 5671 5673 5675 5678 5680 5682 5683 5685 5687 5689 5690 5692 5693 5695 5696 5697 5697 5698 5698 5698 5698 5698 5697 5697
5627 5626 5626 5627 5628 5629 5630 5632 5634 5636 5638 5640 5642 5645 5647 5650 5653 5655 5658 5660 5662 5665 5667 5669 5671 5673 5675 5676 5678 5680 5681 5683 5684 5685 5686 5687 5687 5688 5688 5688 5687 5687 5686
5617 5617 5617 5617 5618 5619 5621 5623 5624 5626 5628 5630 5632 5635 5637 5639 5642 5644 5646 5649 5651 5653 5655 5658 5660 5662 5664 5666 5667 5669 5671 5672 5673 5674 5675 5676 5676 5677 5677 5677 5676 5676 5675
5609 5608 5608 5609 5610 5610 5612 5613 5615 5617 5619 5621 5622 5624 5627 5629 5631 5633 5635 5637 5640 5642 5644 5646 5648 5650 5652 5654 5656 5658 5659 5660 5661 5662 5663 5664 5665 5665 5665 5665 5665 5664 5663
5601 5601 5601 5601 5602 5603 5604 5605 5607 5608 5610 5611 5613 5615 5616 5618 5620 5622 5624 5626 5628 5630 5632 5635 5637 5639 5641 5643 5645 5646 5648 5649 5650 5651 5652 5653 5653 5654 5654 5654 5653 5653 5652